Timestamp,Temp,Chill,HIndex,Humid,Dewpt,Wind,HiWind,WindDir,Rain,RainRate,Barom,Solar,ET,UV,InsideTemp,InsideHumid
2016-06-20 00:00:00,61.5,61.5,61.5,87,57.5913418917599,8,18,202.5,0,0,29.584,0,0.001,0,71.6,55
2016-06-20 00:05:00,61.4,61.4,61.4,87,57.4930436304877,8,20,202.5,0,0,29.579,0,0,0,71.6,54
2016-06-20 00:10:00,61.4,61.4,61.4,87,57.4930436304877,7,14,225,0,0,29.576,0,0,0,71.6,54
2016-06-20 00:15:00,61.4,61.4,61.4,87,57.4930436304877,9,16,225,0,0,29.569,0,0,0,71.6,55
2016-06-20 00:20:00,61.4,61.4,61.4,87,57.4930436304877,8,16,225,0,0,29.568,0,0,0,71.4,55
2016-06-20 00:25:00,61.4,61.4,61.4,87,57.4930436304877,9,22,225,0,0,29.567,0,0,0,71.6,55
2016-06-20 00:30:00,61.4,61.4,61.4,87,57.4930436304877,9,16,225,0,0,29.567,0,0,0,71.4,55
2016-06-20 00:35:00,61.4,61.4,61.4,87,57.4930436304877,11,21,225,0,0,29.567,0,0,0,71.4,55
2016-06-20 00:40:00,61.4,61.4,61.4,87,57.4930436304877,8,20,225,0,0,29.568,0,0,0,71.4,55
2016-06-20 00:45:00,61.4,61.4,61.4,87,57.4930436304877,9,18,202.5,0,0,29.569,0,0,0,71.4,55
2016-06-20 00:50:00,61.3,61.3,61.3,87,57.3947450018582,10,21,225,0,0,29.57,0,0,0,71.4,55
2016-06-20 00:55:00,61.3,61.3,61.3,87,57.3947450018582,10,20,225,0,0,29.57,0,0,0,71.4,55
2016-06-20 01:00:00,61.4,61.4,61.4,87,57.4930436304877,10,16,225,0,0,29.572,0,0.001,0,71.4,55
2016-06-20 01:05:00,61.4,61.4,61.4,87,57.4930436304877,8,16,202.5,0,0,29.571,0,0,0,71.4,54
2016-06-20 01:10:00,61.4,61.4,61.4,87,57.4930436304877,7,13,225,0,0,29.569,0,0,0,71.6,54
2016-06-20 01:15:00,61.4,61.4,61.4,87,57.4930436304877,6,12,202.5,0,0,29.565,0,0,0,71.6,54
2016-06-20 01:20:00,61.4,61.4,61.4,87,57.4930436304877,9,18,225,0,0,29.565,0,0,0,71.6,55
2016-06-20 01:25:00,61.4,61.4,61.4,87,57.4930436304877,9,20,225,0,0,29.562,0,0,0,71.4,55
2016-06-20 01:30:00,61.3,61.3,61.3,87,57.3947450018582,9,16,225,0,0,29.564,0,0,0,71.4,54
2016-06-20 01:35:00,61.3,61.3,61.3,87,57.3947450018582,10,19,225,0,0,29.562,0,0,0,71.4,54
2016-06-20 01:40:00,61.2,61.2,61.2,87,57.2964460058692,9,16,225,0,0,29.561,0,0,0,71.4,55
2016-06-20 01:45:00,61.2,61.2,61.2,87,57.2964460058692,8,22,225,0,0,29.559,0,0,0,71.4,55
2016-06-20 01:50:00,61.1,61.1,61.1,87,57.1981466425186,8,15,202.5,0,0,29.561,0,0,0,71.2,55
2016-06-20 01:55:00,61.1,61.1,61.1,86,56.8772280663328,6,10,202.5,0,0,29.562,0,0,0,71.2,55
2016-06-20 02:00:00,61,61,61,87,57.0998469118046,8,16,202.5,0,0,29.559,0,0.001,0,71.2,55
2016-06-20 02:05:00,60.9,60.9,60.9,87,57.0015468137249,8,19,225,0,0,29.559,0,0,0,71.2,55
2016-06-20 02:10:00,60.8,60.8,60.8,87,56.9032463482775,7,15,202.5,0,0,29.558,0,0,0,71.2,55
2016-06-20 02:15:00,60.8,60.8,60.8,87,56.9032463482775,7,13,202.5,0,0,29.553,0,0,0,71.2,55
2016-06-20 02:20:00,60.7,60.7,60.7,87,56.8049455154603,8,21,225,0,0,29.547,0,0,0,71.2,55
2016-06-20 02:25:00,60.6,60.6,60.6,87,56.7066443152714,7,14,225,0,0,29.543,0,0,0,71.1,56
2016-06-20 02:30:00,60.6,60.6,60.6,88,57.0236534939215,8,22,225,0,0,29.543,0,0,0,71.1,55
2016-06-20 02:35:00,60.5,60.5,60.5,88,56.9252141785833,9,15,225,0,0,29.541,0,0,0,71.1,55
2016-06-20 02:40:00,60.5,60.5,60.5,88,56.9252141785833,9,21,225,0,0,29.54,0,0,0,71.1,55
2016-06-20 02:45:00,60.5,60.5,60.5,88,56.9252141785833,8,16,225,0,0,29.542,0,0,0,71.1,56
2016-06-20 02:50:00,60.5,60.5,60.5,88,56.9252141785833,8,15,225,0,0,29.54,0,0,0,71.1,55
2016-06-20 02:55:00,60.5,60.5,60.5,88,56.9252141785833,7,14,225,0,0,29.539,0,0,0,71.1,55
2016-06-20 03:00:00,60.6,60.6,60.6,88,57.0236534939215,7,15,225,0,0,29.543,0,0.001,0,71.1,56
2016-06-20 03:05:00,60.6,60.6,60.6,88,57.0236534939215,5,18,202.5,0,0,29.542,0,0,0,71.1,56
2016-06-20 03:10:00,60.7,60.7,60.7,88,57.1220924713257,6,11,202.5,0,0,29.543,0,0,0,70.9,56
2016-06-20 03:15:00,60.7,60.7,60.7,88,57.1220924713257,7,15,202.5,0,0,29.539,0,0,0,70.9,57
2016-06-20 03:20:00,60.7,60.7,60.7,88,57.1220924713257,6,14,225,0,0,29.539,0,0,0,70.9,57
2016-06-20 03:25:00,60.7,60.7,60.7,88,57.1220924713257,5,14,225,0,0,29.539,0,0,0,70.7,56
2016-06-20 03:30:00,60.7,60.7,60.7,88,57.1220924713257,5,13,202.5,0,0,29.541,0,0,0,70.7,56
2016-06-20 03:35:00,60.7,60.7,60.7,88,57.1220924713257,5,15,202.5,0,0,29.54,0,0,0,70.7,56
2016-06-20 03:40:00,60.7,60.7,60.7,88,57.1220924713257,4,10,202.5,0,0,29.539,0,0,0,70.9,56
2016-06-20 03:45:00,60.7,60.7,60.7,88,57.1220924713257,5,10,202.5,0,0,29.541,0,0,0,70.7,57
2016-06-20 03:50:00,60.7,60.7,60.7,88,57.1220924713257,5,12,225,0,0,29.543,0,0,0,70.7,56
2016-06-20 03:55:00,60.7,60.7,60.7,88,57.1220924713257,5,12,202.5,0,0,29.542,0,0,0,70.7,56
2016-06-20 04:00:00,60.7,60.7,60.7,88,57.1220924713257,4,14,225,0,0,29.541,0,0.001,0,70.7,56
2016-06-20 04:05:00,60.8,60.8,60.8,88,57.2205311107976,4,11,202.5,0,0,29.54,0,0,0,70.7,56
2016-06-20 04:10:00,60.8,60.8,60.8,87,56.9032463482775,5,12,202.5,0,0,29.539,0,0,0,70.7,56
2016-06-20 04:15:00,60.8,60.8,60.8,87,56.9032463482775,6,11,225,0,0,29.539,0,0,0,70.9,56
2016-06-20 04:20:00,60.9,60.9,60.9,87,57.0015468137249,3,8,202.5,0,0,29.539,0,0,0,70.7,57
2016-06-20 04:25:00,60.9,60.9,60.9,87,57.0015468137249,4,9,202.5,0,0,29.536,2,0,0,70.7,57
2016-06-20 04:30:00,60.9,60.9,60.9,87,57.0015468137249,5,13,202.5,0,0,29.537,6,0,0,70.7,57
2016-06-20 04:35:00,60.9,60.9,60.9,87,57.0015468137249,6,14,202.5,0,0,29.534,11,0,0,70.7,56
2016-06-20 04:40:00,60.9,60.9,60.9,87,57.0015468137249,7,14,225,0,0,29.534,17,0,0,70.9,56
2016-06-20 04:45:00,60.9,60.9,60.9,87,57.0015468137249,7,12,202.5,0,0,29.535,20,0,0,70.9,55
2016-06-20 04:50:00,60.9,60.9,60.9,87,57.0015468137249,5,10,202.5,0,0,29.536,24,0,0,71.1,55
2016-06-20 04:55:00,60.9,60.9,60.9,87,57.0015468137249,4,12,202.5,0,0,29.537,25,0,0,71.1,56
2016-06-20 05:00:00,60.9,60.9,60.9,87,57.0015468137249,5,14,202.5,0,0,29.536,25,0.001,0,71.1,55
2016-06-20 05:05:00,60.9,60.9,60.9,87,57.0015468137249,5,13,202.5,0,0,29.54,26,0,0,71.1,55
2016-06-20 05:10:00,60.9,60.9,60.9,87,57.0015468137249,5,13,202.5,0,0,29.537,19,0,0,71.1,57
2016-06-20 05:15:00,60.9,60.9,60.9,86,56.6809065970493,6,12,225,0,0,29.536,26,0,0,70.9,57
2016-06-20 05:20:00,60.9,60.9,60.9,86,56.6809065970493,7,13,202.5,0,0,29.533,36,0,0,70.6,58
2016-06-20 05:25:00,61,61,61,86,56.7790675301999,7,15,225,0,0,29.534,44,0,0,70.4,58
2016-06-20 05:30:00,61,61,61,86,56.7790675301999,5,13,225,0,0,29.53,37,0,0,70.4,58
2016-06-20 05:35:00,61,61,61,86,56.7790675301999,6,13,225,0,0,29.531,42,0,0,70.2,59
2016-06-20 05:40:00,61,61,61,86,56.7790675301999,7,11,225,0,0,29.531,68,0,0,70.1,59
2016-06-20 05:45:00,61,61,61,86,56.7790675301999,8,15,225,0,0,29.528,90,0,0,70.1,59
2016-06-20 05:50:00,61.1,61.1,61.1,86,56.8772280663328,7,13,202.5,0,0,29.529,95,0,0,70.1,59
2016-06-20 05:55:00,61.1,61.1,61.1,86,56.8772280663328,7,12,225,0,0,29.526,109,0,0,70.2,59
2016-06-20 06:00:00,61.2,61.2,61.2,86,56.9753882054503,7,12,202.5,0,0,29.529,91,0.002,0,70.2,58
2016-06-20 06:05:00,61.2,61.2,61.2,86,56.9753882054503,7,14,225,0,0,29.53,88,0,0,70.2,59
2016-06-20 06:10:00,61.3,61.3,61.3,86,57.073547947555,6,14,202.5,0,0,29.534,95,0,0,70.4,58
2016-06-20 06:15:00,61.3,61.3,61.3,85,56.7490570331921,6,12,202.5,0,0,29.535,110,0,0,70.4,58
2016-06-20 06:20:00,61.3,61.3,61.3,85,56.7490570331921,7,12,202.5,0,0,29.532,109,0,0,70.4,58
2016-06-20 06:25:00,61.5,61.5,61.5,85,56.9450940733298,3,7,202.5,0,0,29.531,119,0,0,70.4,58
2016-06-20 06:30:00,61.5,61.5,61.5,85,56.9450940733298,3,10,202.5,0,0,29.534,92,0,0,70.4,58
2016-06-20 06:35:00,61.6,61.6,61.6,85,57.0431119530869,4,8,202.5,0,0,29.532,85,0,0,70.4,58
2016-06-20 06:40:00,61.6,61.6,61.6,85,57.0431119530869,5,12,202.5,0,0,29.531,82,0,0,70.4,58
2016-06-20 06:45:00,61.6,61.6,61.6,84,56.7148277123968,5,13,202.5,0,0,29.531,88,0,0,70.6,58
2016-06-20 06:50:00,61.6,61.6,61.6,84,56.7148277123968,2,9,180,0,0,29.527,101,0,0,70.4,58
2016-06-20 06:55:00,61.7,61.7,61.7,84,56.8127031066428,4,9,202.5,0,0,29.527,100,0,0,70.4,58
2016-06-20 07:00:00,61.7,61.7,61.7,84,56.8127031066428,3,9,225,0,0,29.525,111,0.003,0,70.2,59
2016-06-20 07:05:00,61.8,61.8,61.8,84,56.9105780439321,4,8,225,0,0,29.522,119,0,0,70.2,59
2016-06-20 07:10:00,61.8,61.8,61.8,84,56.9105780439321,4,8,202.5,0,0,29.519,122,0,0,70.4,59
2016-06-20 07:15:00,61.8,61.8,61.8,83,56.5785593784959,6,13,225,0,0,29.52,123,0,0.1,70.4,58
2016-06-20 07:20:00,61.8,61.8,61.8,83,56.5785593784959,7,15,225,0,0,29.52,134,0,0.1,70.6,58
2016-06-20 07:25:00,61.8,61.8,61.8,83,56.5785593784959,7,16,225,0,0,29.519,150,0,0.5,70.7,57
2016-06-20 07:30:00,61.8,61.8,61.8,83,56.5785593784959,6,12,225,0,0,29.523,156,0,0.6,70.9,57
2016-06-20 07:35:00,61.9,61.9,61.9,83,56.6762903523923,7,15,225,0,0,29.528,165,0,0.7,71.2,56
2016-06-20 07:40:00,62,62,62,83,56.7740208390246,5,12,202.5,0,0,29.53,161,0,0.6,71.6,56
2016-06-20 07:45:00,62,62,62,83,56.7740208390246,6,12,202.5,0,0,29.529,162,0,0.6,71.8,55
2016-06-20 07:50:00,62.1,62.1,62.1,83,56.8717508383963,6,10,202.5,0,0,29.531,150,0,0.5,71.9,55
2016-06-20 07:55:00,62.2,62.2,62.2,83,56.9694803505111,5,11,202.5,0,0,29.531,114,0,0.1,72.1,55
2016-06-20 08:00:00,62.2,62.2,62.2,83,56.9694803505111,7,14,225,0,0,29.535,110,0.004,0,72.3,55
2016-06-20 08:05:00,62.2,62.2,62.2,83,56.9694803505111,5,13,202.5,0,0,29.536,91,0,0,72.3,54
2016-06-20 08:10:00,62.1,62.1,62.1,83,56.8717508383963,5,13,202.5,0,0,29.533,87,0,0,72.3,55
2016-06-20 08:15:00,62.1,62.1,62.1,83,56.8717508383963,5,10,202.5,0,0,29.535,82,0,0,72.3,55
2016-06-20 08:20:00,62,62,62,83,56.7740208390246,6,13,202.5,0,0,29.535,83,0,0,72.4,55
2016-06-20 08:25:00,61.9,61.9,61.9,83,56.6762903523923,6,11,225,0,0,29.539,70,0,0,72.4,56
2016-06-20 08:30:00,61.8,61.8,61.8,83,56.5785593784959,6,13,202.5,0,0,29.537,58,0,0,72.4,56
2016-06-20 08:35:00,61.8,61.8,61.8,83,56.5785593784959,6,12,202.5,0,0,29.533,72,0,0,72.6,56
2016-06-20 08:40:00,61.8,61.8,61.8,83,56.5785593784959,4,9,180,0,0,29.533,64,0,0,72.6,56
2016-06-20 08:45:00,61.8,61.8,61.8,83,56.5785593784959,3,7,180,0,0,29.535,44,0,0,72.6,56
2016-06-20 08:50:00,61.5,61.5,61.5,82,55.950250355529,6,18,292.5,0,0,29.542,25,0,0,72.8,56
2016-06-20 08:55:00,61.1,61.1,61.1,82,55.5598947670993,5,13,270,0,0,29.54,46,0,0,72.6,56
2016-06-20 09:00:00,60.9,60.9,60.9,82,55.3647138658534,4,10,270,0,0,29.536,117,0.002,0.6,72.4,56
2016-06-20 09:05:00,60.8,60.8,60.8,83,55.6012228391999,2,6,247.5,0,0,29.537,119,0,0.5,72.6,56
2016-06-20 09:10:00,60.7,60.7,60.7,83,55.5034865051569,1,6,270,0,0,29.537,95,0,0,72.6,56
2016-06-20 09:15:00,60.7,60.7,60.7,84,55.8339286005996,1,5,270,0,0,29.536,101,0,0.2,72.8,56
2016-06-20 09:20:00,60.6,60.6,60.6,84,55.7360486366098,3,9,270,0,0,29.529,144,0,0.8,73,56
2016-06-20 09:25:00,60.5,60.5,60.5,84,55.638168215628,4,11,270,0,0,29.53,146,0,0.8,73.1,55
2016-06-20 09:30:00,60.4,60.4,60.4,83,55.210274579166,4,10,202.5,0,0,29.533,119,0,0.6,73.1,55
2016-06-20 09:35:00,60.3,60.3,60.3,83,55.1125362958695,4,11,247.5,0,0,29.535,103,0,0.3,73.3,54
2016-06-20 09:40:00,60.3,60.3,60.3,83,55.1125362958695,4,9,270,0,0,29.535,135,0,0.8,73.3,54
2016-06-20 09:45:00,60.3,60.3,60.3,83,55.1125362958695,3,8,180,0,0,29.533,136,0,0.8,73.5,54
2016-06-20 09:50:00,60.4,60.4,60.4,82,54.8767525502999,3,10,180,0,0,29.533,133,0,0.8,73.5,54
2016-06-20 09:55:00,60.4,60.4,60.4,82,54.8767525502999,3,10,247.5,0,0,29.532,118,0,0.7,73.6,53
2016-06-20 10:00:00,60.5,60.5,60.5,81,54.6370874318972,2,5,180,0,0,29.523,158,0.003,1.1,73.8,54
2016-06-20 10:05:00,60.7,60.7,60.7,81,54.8319804955318,2,7,202.5,0,0,29.525,224,0,1.6,74,54
2016-06-20 10:10:00,60.8,60.8,60.8,81,54.9294262043825,3,8,202.5,0,0,29.523,164,0,1.1,74.3,54
2016-06-20 10:15:00,60.9,60.9,60.9,81,55.0268713645949,5,9,202.5,0,0,29.523,168,0,1.2,74.7,53
2016-06-20 10:20:00,61,61,61,80,54.782643964254,5,10,202.5,0,0,29.524,150,0,1.1,74.9,53
2016-06-20 10:25:00,61.1,61.1,61.1,81,55.2217600391233,3,11,202.5,0,0,29.527,233,0,1.9,74.9,52
2016-06-20 10:30:00,61.3,61.3,61.3,81,55.4166465191543,1,6,247.5,0,0,29.53,282,0,2.2,75.2,52
2016-06-20 10:35:00,61.6,61.6,61.6,81,55.7089721245991,3,10,202.5,0,0,29.53,270,0,2.2,75.4,52
2016-06-20 10:40:00,61.9,61.9,61.9,80,55.6582911742864,2,8,270,0,0,29.529,284,0,2.3,75.6,52
2016-06-20 10:45:00,62.1,62.1,62.1,79,55.5057882003105,3,8,292.5,0,0,29.53,167,0,1.3,75.7,51
2016-06-20 10:50:00,62.2,62.2,62.2,78,55.2518145321691,4,13,270,0,0,29.541,99,0,0.5,75.6,51
2016-06-20 10:55:00,62.2,62.2,62.2,77,54.8967259434285,5,14,292.5,0,0,29.538,229,0,1.7,75.4,50
2016-06-20 11:00:00,62.3,62.3,62.3,77,54.9935622423383,4,8,225,0,0,29.537,199,0.005,1.5,75.2,50
2016-06-20 11:05:00,62.4,62.4,62.4,77,55.0903978671269,2,6,180,0,0,29.537,179,0,1.3,75.2,51
2016-06-20 11:10:00,62.5,62.5,62.5,77,55.1872328178013,1,7,202.5,0,0,29.537,135,0,0.9,75.2,50
2016-06-20 11:15:00,62.5,62.5,62.5,76,54.8276090676984,2,8,292.5,0,0,29.537,136,0,0.7,75.2,50
2016-06-20 11:20:00,62.5,62.5,62.5,75,54.4638063846062,4,9,270,0,0,29.537,260,0,1.7,75.2,50
2016-06-20 11:25:00,62.6,62.6,62.6,74,54.1920851472559,5,11,247.5,0,0,29.537,182,0,1.3,75.4,49
2016-06-20 11:30:00,62.7,62.7,62.7,73,53.9156495297343,3,12,315,0,0,29.537,102,0,0.4,75.4,49
2016-06-20 11:35:00,62.6,62.6,62.6,73,53.8194437075111,5,10,292.5,0,0,29.538,160,0,1.1,75.4,49
2016-06-20 11:40:00,62.7,62.7,62.7,73,53.9156495297343,3,9,247.5,0,0,29.539,164,0,1.1,75.4,48
2016-06-20 11:45:00,62.7,62.7,62.7,73,53.9156495297343,4,9,292.5,0,0,29.536,140,0,0.8,75.2,49
2016-06-20 11:50:00,62.8,62.8,62.8,74,54.3848150833278,3,11,225,0,0,29.54,182,0,1.1,75.2,49
2016-06-20 11:55:00,63,63,63,74,54.5775419355896,3,10,225,0,0,29.54,358,0,2.8,75.6,49
2016-06-20 12:00:00,64.9,64.9,64.9,72,55.6511032657753,2,7,270,0,0,29.54,595,0.005,5.1,75.9,49
2016-06-20 12:05:00,66,66,66,68,55.1285069685997,4,8,202.5,0,0,29.534,1213,0,5.5,75.9,48
2016-06-20 12:10:00,66.4,66.4,66.4,67,55.1017751050629,5,12,225,0,0,29.532,533,0,6.3,75.9,48
2016-06-20 12:15:00,67.2,67.2,67.2,65,55.0277694427391,5,12,225,0,0,29.533,501,0,4,75.9,48
2016-06-20 12:20:00,66.6,66.6,66.6,64,54.033785156785,6,13,292.5,0,0,29.534,324,0,2.6,75.9,47
2016-06-20 12:25:00,66.4,66.4,66.4,66,54.6882769474566,7,13,315,0,0,29.539,401,0,4.9,76.1,48
2016-06-20 12:30:00,65.9,65.9,65.9,68,55.0331587771644,5,13,315,0,0,29.537,284,0,3.2,76.1,48
2016-06-20 12:35:00,65.8,65.8,65.8,69,55.3396686020377,4,10,270,0,0,29.537,354,0,3,76.1,48
2016-06-20 12:40:00,65.8,65.8,65.8,67,54.5307280963958,6,14,315,0,0,29.538,345,0,2.9,76.1,48
2016-06-20 12:45:00,66.5,66.5,66.5,67,55.1969460839835,6,16,292.5,0,0,29.538,972,0,6.9,76.3,47
2016-06-20 12:50:00,68.2,68.2,68.2,64,55.5478720304625,5,11,270,0,0,29.536,1013,0,7.2,76.1,47
2016-06-20 12:55:00,68.3,68.3,68.3,63,55.2084389521543,7,15,292.5,0,0,29.542,950,0,7.1,75.9,47
2016-06-20 13:00:00,69,69,69,61,54.980314343533,6,12,315,0,0,29.542,1063,0.016,7.4,75.9,47
2016-06-20 13:05:00,68.4,68.4,68.4,61,54.415937367348,8,18,270,0,0,29.543,897,0,7,75.9,46
2016-06-20 13:10:00,68.4,68.4,68.4,61,54.415937367348,7,19,270,0,0,29.54,471,0,6,76.1,46
2016-06-20 13:15:00,67.9,67.9,67.9,61,53.9455896540593,8,21,315,0,0,29.54,908,0,6.4,76.3,46
2016-06-20 13:20:00,67.3,67.3,67.3,61,53.3811321139086,9,20,247.5,0,0,29.546,749,0,5.6,76.3,46
2016-06-20 13:25:00,66.5,66.5,66.5,62,53.071523131842,7,14,270,0,0,29.546,367,0,3.5,76.1,45
2016-06-20 13:30:00,67.7,67.7,67.7,62,54.2027460738152,4,15,225,0,0,29.544,965,0,6,75.9,46
2016-06-20 13:35:00,68.2,68.2,68.2,61,54.227801944019,8,13,247.5,0,0,29.546,1017,0,6.5,76.1,45
2016-06-20 13:40:00,68.9,68.9,68.9,60,54.4322219402767,7,15,270,0,0,29.542,930,0,6.4,76.1,46
2016-06-20 13:45:00,69.4,69.4,69.4,60,54.9015611790611,4,15,225,0,0,29.542,940,0,6.1,76.1,46
2016-06-20 13:50:00,69.6,69.6,69.6,58,54.1582158911218,7,20,225,0,0,29.543,910,0,5.6,76.3,45
2016-06-20 13:55:00,68,68,68,60,53.5873320862511,6,18,202.5,0,0,29.549,404,0,5,76.3,45
2016-06-20 14:00:00,67.6,67.6,67.6,60,53.2117927848124,7,16,270,0,0,29.552,643,0.02,5.3,76.1,45
2016-06-20 14:05:00,68,68,68,60,53.5873320862511,4,11,225,0,0,29.55,804,0,5.6,76.1,45
2016-06-20 14:10:00,68.5,68.5,68.5,61,54.5100032480904,5,13,270,0,0,29.548,809,0,5.5,76.1,45
2016-06-20 14:15:00,68.8,68.8,68.8,58,53.4103732789658,8,22,292.5,0,0,29.55,864,0,5.6,76.1,45
2016-06-20 14:20:00,68.7,68.7,68.7,59,53.7841344902094,6,18,247.5,0,0,29.552,811,0,5.4,76.1,44
2016-06-20 14:25:00,68.5,68.5,68.5,59,53.5967687264109,8,16,225,0,0,29.551,844,0,5,75.9,45
2016-06-20 14:30:00,68,68,68,59,53.1283316540852,8,20,270,0,0,29.555,840,0,5.3,75.9,45
2016-06-20 14:35:00,68.2,68.2,68.2,60,53.7750941905437,7,13,247.5,0,0,29.557,844,0,5.1,75.7,44
2016-06-20 14:40:00,68.3,68.3,68.3,60,53.8689733561717,6,18,270,0,0,29.555,831,0,4.3,75,44
2016-06-20 14:45:00,68.5,68.5,68.5,60,54.0567279145177,6,14,292.5,0,0,29.554,836,0,4.9,74.9,45
2016-06-20 14:50:00,68.3,68.3,68.3,58,52.9429283345352,8,22,270,0,0,29.554,802,0,4.8,74.5,44
2016-06-20 14:55:00,68.1,68.1,68.1,58,52.755941027063,7,18,247.5,0,0,29.56,801,0,4.1,74.2,44
2016-06-20 15:00:00,67.5,67.5,67.5,58,52.1949471141393,7,14,292.5,0,0,29.562,602,0.02,3.4,74,45
2016-06-20 15:05:00,67,67,67,60,52.6484460974872,8,18,270,0,0,29.565,912,0,3.4,73.8,45
2016-06-20 15:10:00,68,68,68,60,53.5873320862511,6,16,270,0,0,29.565,818,0,4.3,73.6,46
2016-06-20 15:15:00,67.7,67.7,67.7,57,51.909543631447,8,21,225,0,0,29.566,859,0,2.5,73.3,44
2016-06-20 15:20:00,67.9,67.9,67.9,56,51.6160006863217,8,18,270,0,0,29.568,822,0,3.8,73.1,44
2016-06-20 15:25:00,67.4,67.4,67.4,56,51.1504795901925,6,14,247.5,0,0,29.57,223,0,2.6,72.8,44
2016-06-20 15:30:00,66.1,66.1,66.1,58,50.8857746767575,7,16,292.5,0,0,29.57,169,0,1.6,72.6,44
2016-06-20 15:35:00,65.9,65.9,65.9,58,50.6987287091505,8,16,315,0,0,29.573,155,0,2.6,72.4,44
2016-06-20 15:40:00,65.8,65.8,65.8,58,50.6052037250707,7,15,270,0,0,29.571,339,0,3,72.3,44
2016-06-20 15:45:00,66.2,66.2,66.2,58,50.9792956603416,6,16,225,0,0,29.571,364,0,2.2,72.1,44
2016-06-20 15:50:00,65.9,65.9,65.9,58,50.6987287091505,7,14,270,0,0,29.572,540,0,2.8,71.9,44
2016-06-20 15:55:00,66.1,66.1,66.1,57,50.4165146469546,7,19,225,0,0,29.575,741,0,2.5,71.9,44
2016-06-20 16:00:00,66.7,66.7,66.7,57,50.9764416608671,7,18,270,0,0,29.573,757,0.015,2.6,72.1,44
2016-06-20 16:05:00,66.1,66.1,66.1,57,50.4165146469546,8,16,270,0,0,29.578,213,0,1.3,72.3,44
2016-06-20 16:10:00,65.4,65.4,65.4,58,50.2310904529104,7,14,270,0,0,29.579,227,0,1.5,72.3,43
2016-06-20 16:15:00,66.2,66.2,66.2,57,50.5098392450454,7,19,270,0,0,29.581,687,0,2.5,72.3,44
2016-06-20 16:20:00,67,67,67,57,51.2563866517434,6,19,270,0,0,29.588,683,0,2.1,72.3,44
2016-06-20 16:25:00,66.9,66.9,66.9,57,51.1630730262655,5,14,180,0,0,29.583,669,0,2.4,72.4,45
2016-06-20 16:30:00,67,67,67,55,50.2921188625219,5,14,225,0,0,29.591,376,0,1.8,72.4,44
2016-06-20 16:35:00,66.4,66.4,66.4,56,50.2193316469425,6,14,225,0,0,29.589,216,0,1.2,72.4,43
2016-06-20 16:40:00,65.7,65.7,65.7,57,50.0432025371626,5,10,247.5,0,0,29.59,207,0,1.2,72.4,43
2016-06-20 16:45:00,65.9,65.9,65.9,58,50.6987287091505,4,11,315,0,0,29.591,400,0,1.3,72.4,44
2016-06-20 16:50:00,66.7,66.7,66.7,57,50.9764416608671,4,11,247.5,0,0,29.591,525,0,1.7,72.6,44
2016-06-20 16:55:00,66.7,66.7,66.7,57,50.9764416608671,7,15,292.5,0,0,29.593,493,0,1.5,72.6,44
2016-06-20 17:00:00,66.5,66.5,66.5,59,51.7228261547433,5,11,225,0,0,29.593,471,0.012,1.4,72.6,44
2016-06-20 17:05:00,66.1,66.1,66.1,59,51.3479754618876,7,14,247.5,0,0,29.595,408,0,1.3,72.4,45
2016-06-20 17:10:00,65.8,65.8,65.8,60,51.5216168562134,4,9,202.5,0,0,29.594,446,0,1.3,72.3,45
2016-06-20 17:15:00,65.6,65.6,65.6,61,51.7815970533931,5,13,247.5,0,0,29.595,444,0,0.9,72.1,46
2016-06-20 17:20:00,65.3,65.3,65.3,61,51.4992895255229,4,10,315,0,0,29.593,337,0,0.9,72.1,46
2016-06-20 17:25:00,65.5,65.5,65.5,60,51.239881236366,5,11,315,0,0,29.595,415,0,1,72.1,45
2016-06-20 17:30:00,65.5,65.5,65.5,59,50.7856605529684,6,14,270,0,0,29.592,382,0,0.9,71.9,45
2016-06-20 17:35:00,65.9,65.9,65.9,59,51.1605423417476,3,11,247.5,0,0,29.595,369,0,0.8,71.9,45
2016-06-20 17:40:00,65.7,65.7,65.7,59,50.9731040388462,6,13,225,0,0,29.596,365,0,0.7,71.9,45
2016-06-20 17:45:00,65.6,65.6,65.6,60,51.3337943679677,6,13,270,0,0,29.599,313,0,0.5,71.9,45
2016-06-20 17:50:00,64.8,64.8,64.8,62,51.4686653352644,6,13,270,0,0,29.6,252,0,0.3,71.9,46
2016-06-20 17:55:00,64.5,64.5,64.5,62,51.1857725369868,5,11,292.5,0,0,29.603,262,0,0.4,71.9,46
2016-06-20 18:00:00,64.4,64.4,64.4,62,51.0914725679111,6,13,225,0,0,29.607,176,0.009,0,71.9,46
2016-06-20 18:05:00,64.2,64.2,64.2,62,50.9028690751511,7,14,247.5,0,0,29.611,303,0,0,71.9,45
2016-06-20 18:10:00,64.2,64.2,64.2,63,51.3354921820278,7,14,247.5,0,0,29.614,293,0,0,72.1,45
2016-06-20 18:15:00,64.1,64.1,64.1,62,50.8085655514221,6,12,225,0,0,29.612,124,0,0,72.1,45
2016-06-20 18:20:00,63.7,63.7,63.7,62,50.4313396069918,5,16,247.5,0,0,29.618,75,0,0,72.1,45
2016-06-20 18:25:00,63.6,63.6,63.6,62,50.3370301583939,7,14,292.5,0,0,29.616,192,0,0,72.1,44
2016-06-20 18:30:00,63.9,63.9,63.9,62,50.6199549491545,5,11,270,0,0,29.619,253,0,0,72.1,45
2016-06-20 18:35:00,64,64,64,61,50.2758298767805,5,13,292.5,0,0,29.625,102,0,0,72.3,44
2016-06-20 18:40:00,63.4,63.4,63.4,62,50.1484077060535,5,10,315,0,0,29.62,67,0,0,72.3,44
2016-06-20 18:45:00,63.1,63.1,63.1,64,50.7207274287023,4,10,270,0,0,29.622,133,0,0,71.9,45
2016-06-20 18:50:00,63.1,63.1,63.1,64,50.7207274287023,3,9,292.5,0,0,29.623,85,0,0,71.9,45
2016-06-20 18:55:00,63.1,63.1,63.1,64,50.7207274287023,3,9,225,0,0,29.624,70,0,0,71.9,45
2016-06-20 19:00:00,62.9,62.9,62.9,64,50.5313686778077,4,11,315,0,0,29.631,72,0.005,0,71.9,45
2016-06-20 19:05:00,62.9,62.9,62.9,64,50.5313686778077,2,8,202.5,0,0,29.635,105,0,0,71.9,45
2016-06-20 19:10:00,62.8,62.8,62.8,64,50.4366876330782,4,9,270,0,0,29.633,110,0,0,71.9,45
2016-06-20 19:15:00,62.8,62.8,62.8,64,50.4366876330782,3,6,292.5,0,0,29.638,115,0,0,71.9,45
2016-06-20 19:20:00,62.8,62.8,62.8,64,50.4366876330782,4,9,247.5,0,0,29.641,101,0,0,72.1,45
2016-06-20 19:25:00,62.6,62.6,62.6,64,50.2473222049569,4,10,315,0,0,29.641,75,0,0,72.1,45
2016-06-20 19:30:00,62.2,62.2,62.2,64,49.8685779935154,4,11,247.5,0,0,29.643,51,0,0,71.9,45
2016-06-20 19:35:00,61.8,61.8,61.8,65,49.906362513937,4,14,292.5,0,0,29.644,40,0,0,71.8,45
2016-06-20 19:40:00,61.6,61.6,61.6,65,49.7166204577872,5,11,270,0,0,29.643,40,0,0,71.4,45
2016-06-20 19:45:00,61.3,61.3,61.3,66,49.8420736927139,5,11,247.5,0,0,29.644,32,0,0,71.4,45
2016-06-20 19:50:00,61.1,61.1,61.1,67,50.0562726552392,2,9,270,0,0,29.647,24,0,0,71.1,45
2016-06-20 19:55:00,60.8,60.8,60.8,67,49.7705935898682,3,9,225,0,0,29.649,23,0,0,70.9,46
2016-06-20 20:00:00,60.7,60.7,60.7,67,49.6753652201593,3,10,247.5,0,0,29.652,20,0.003,0,70.6,46
2016-06-20 20:05:00,60.6,60.6,60.6,68,49.978313493405,3,8,202.5,0,0,29.654,18,0,0,70.4,46
2016-06-20 20:10:00,60.4,60.4,60.4,69,50.1802362142817,2,6,270,0,0,29.657,15,0,0,70.1,47
2016-06-20 20:15:00,60.2,60.2,60.2,69,49.9890935911147,4,9,225,0,0,29.657,14,0,0,69.9,47
2016-06-20 20:20:00,60.2,60.2,60.2,69,49.9890935911147,2,7,270,0,0,29.659,14,0,0,69.7,47
2016-06-20 20:25:00,60,60,60,70,50.1850346086273,2,6,270,0,0,29.662,12,0,0,69.6,48
2016-06-20 20:30:00,59.8,59.8,59.8,70,49.9935523488935,2,9,270,0,0,29.664,10,0,0,69.4,48
2016-06-20 20:35:00,59.6,59.6,59.6,71,50.1836654347648,1,5,270,0,0,29.668,6,0,0,69.2,48
2016-06-20 20:40:00,59.4,59.4,59.4,71,49.9918479434089,0,5,0,0,0,29.666,5,0,0,68.9,49
2016-06-20 20:45:00,59.3,59.3,59.3,71,49.8959378916599,3,8,270,0,0,29.672,1,0,0,68.7,49
2016-06-20 20:50:00,59,59,59,72,49.9841323332196,1,5,292.5,0,0,29.675,0,0,0,68.9,49
2016-06-20 20:55:00,59,59,59,72,49.9841323332196,1,9,247.5,0,0,29.673,0,0,0,68.7,49
2016-06-20 21:00:00,59,59,59,72,49.9841323332196,1,5,270,0,0,29.674,0,0.001,0,68.5,50
2016-06-20 21:05:00,59,59,59,73,50.3554986930939,0,3,0,0,0,29.676,0,0,0,68.4,50
2016-06-20 21:10:00,58.7,58.7,58.7,73,50.0667895710577,1,6,270,0,0,29.676,0,0,0,68.2,50
2016-06-20 21:15:00,58.6,58.6,58.6,73,49.9705515886572,2,6,270,0,0,29.677,0,0,0,68.2,50
2016-06-20 21:20:00,58.5,58.5,58.5,74,50.2404417407805,1,5,270,0,0,29.675,0,0,0,67.9,51
2016-06-20 21:25:00,58.5,58.5,58.5,74,50.2404417407805,0,4,0,0,0,29.673,0,0,0,67.7,51
2016-06-20 21:30:00,58.3,58.3,58.3,75,50.4091369061849,0,4,0,0,0,29.677,0,0,0,67.5,51
2016-06-20 21:35:00,58.2,58.2,58.2,75,50.3125812755091,1,3,247.5,0,0,29.682,0,0,0,67.2,52
2016-06-20 21:40:00,58.1,58.1,58.1,75,50.216024906049,1,5,247.5,0,0,29.683,0,0,0,67,52